Location: Gollag?dem
(16.8053°N, 80.8024°E)
Time: 19:00:43
(UTC+00:00)

Cosmos 1302 Rocket - Pass Details

Date: 13 August 2020
Orbit: 756 x 776 km, 74.0° (Epoch: 20 September)

Event Time Altitude Azimuth Distance (km) Brightness Sun altitude
Rises 13:16:06 0° 351° (N) 3,215 7.6 -3.8°
Reaches altitude 10° 13:18:29 10° 354° (N) 2,292 6.8 -4.4°
Maximum altitude 13:23:39 67° 76° (ENE) 828 4.0 -5.6°
Drops below altitude 10° 13:28:50 10° 159° (SSE) 2,301 6.1 -6.8°
Sets 13:31:14 0° 161° (SSE) 3,230 6.9 -7.3°
